Waarnemingen

Advertentie
Mijn weer
Woensdrecht, Nederland (6340): temperatuur & dauwpunt: 22.04.2017 02:00:00 - 28.04.2017 02:00:00 (CEST)Woensdrecht, Nederland (6340): temperatuur 5cm: 22.04.2017 02:00:00 - 28.04.2017 02:00:00 (CEST)Woensdrecht, Nederland (6340): windsnelheid & windstoten: 22.04.2017 02:00:00 - 28.04.2017 02:00:00 (CEST)Woensdrecht, Nederland (6340): windrichting: 22.04.2017 02:00:00 - 28.04.2017 02:00:00 (CEST)Woensdrecht, Nederland (6340): luchtdruk: 22.04.2017 02:00:00 - 28.04.2017 02:00:00 (CEST)Woensdrecht, Nederland (6340): zicht: 22.04.2017 02:00:00 - 28.04.2017 02:00:00 (CEST)
Datum & Tijd tt [°C] td [°C] tt 5cm [°C] ff [km/u] ff [kn] fx [km/u] fx [kn] dd ppp [hPa] vv [km]
28.04.2017 02:00:00 6,9 3,5 6,6 8 4 14 8 ZW 1015,1 10
28.04.2017 01:00:00 7,0 3,1 6,4 13 7 22 12 ZW 1015,4 10
28.04.2017 00:00:00 6,8 3,2 5,1 4 2 11 6 ZZW 1015,8 10
27.04.2017 23:00:00 6,1 2,5 4,8 9 5 14 8 WZW 1016,2 10
27.04.2017 22:00:00 7,0 2,4 6,5 15 8 25 14 W 1016,5 10
27.04.2017 21:00:00 6,9 1,6 5,4 9 5 25 14 W 1016,7 10
27.04.2017 20:00:00 8,2 0,0 7,9 15 8 25 14 W 1016,6 10
27.04.2017 19:00:00 8,9 -1,3 9,2 13 7 29 16 WNW 1016,7 10
27.04.2017 18:00:00 9,2 -0,5 10,1 16 9 29 16 W 1016,9 10
27.04.2017 17:00:00 9,8 0,3 11,4 22 12 32 18 WNW 1017,2 10
27.04.2017 16:00:00 9,0 0,9 9,7 22 12 36 19 WNW 1017,5 10
27.04.2017 15:00:00 9,6 2,6 11,1 18 10 29 16 W 1017,5 10
27.04.2017 14:00:00 8,8 3,0 9,3 21 11 32 18 W 1017,7 10
27.04.2017 13:00:00 8,2 3,7 10,5 13 7 25 14 W 1017,8 10
27.04.2017 12:00:00 6,3 2,4 7,3 21 11 36 19 NW 1018,3 10
27.04.2017 11:00:00 7,5 2,3 7,7 11 6 22 12 W 1018,0 10
27.04.2017 10:00:00 7,3 2,1 7,6 13 7 18 10 W 1017,9 10
27.04.2017 09:00:00 7,3 1,7 7,9 8 4 14 8 WNW 1017,8 10
27.04.2017 08:00:00 2,7 2,2 1,1 2 1 4 2 ZW 1017,6 10
27.04.2017 07:00:00 -1,5 -1,5 -4,1 2 1 4 2 Z 1017,3 10
27.04.2017 06:00:00 -1,6 -2,0 -4,3 0 0 4 2 N 1017,1 10
27.04.2017 05:00:00 -1,6 -2,0 -4,5 2 1 4 2 NNW 1017,0 10
27.04.2017 04:00:00 -1,1 -1,7 -3,7 0 0 4 2 N 1017,1 10
27.04.2017 03:00:00 -0,8 -1,1 -3,9 0 0 4 2 N 1017,0 10
27.04.2017 02:00:00 -0,5 -0,9 -3,1 4 2 4 2 - 1017,1 10
27.04.2017 01:00:00 -0,3 -1,0 -3,0 0 0 0 0 N 1017,2 10
27.04.2017 00:00:00 1,0 -0,1 -2,0 0 0 4 2 N 1017,1 10
26.04.2017 23:00:00 2,2 0,2 -0,4 2 1 11 6 NNW 1016,9 10
26.04.2017 22:00:00 5,5 1,0 3,1 5 3 22 12 N 1016,4 10
26.04.2017 21:00:00 6,6 0,8 5,7 13 7 32 18 N 1015,8 10
26.04.2017 20:00:00 8,4 0,7 8,3 18 10 29 16 N 1015,2 10
26.04.2017 19:00:00 9,5 1,0 9,8 22 12 36 19 NNW 1014,7 10
26.04.2017 18:00:00 10,2 -0,1 11,3 22 12 36 19 NNW 1014,4 10
26.04.2017 17:00:00 9,9 -0,3 11,3 18 10 32 18 NNW 1014,3 10
26.04.2017 16:00:00 10,7 1,2 10,2 15 8 32 18 NNW 1014,1 10
26.04.2017 15:00:00 8,5 1,3 8,7 9 5 22 12 NW 1014,2 10
26.04.2017 14:00:00 8,2 2,3 8,1 11 6 25 14 N 1014,2 10
26.04.2017 13:00:00 8,2 0,9 8,0 11 6 29 16 ONO 1013,8 10
26.04.2017 12:00:00 7,9 1,2 8,9 21 11 32 18 W 1013,7 10
26.04.2017 11:00:00 8,2 -0,1 8,5 9 5 18 10 - 1013,3 10
26.04.2017 10:00:00 8,0 -0,1 9,1 13 7 18 10 - 1013,0 10
26.04.2017 09:00:00 7,5 2,1 8,3 2 1 7 4 O 1012,7 10
26.04.2017 08:00:00 3,0 2,0 1,8 2 1 7 4 - 1012,6 10
26.04.2017 07:00:00 1,7 0,5 0,3 4 2 14 8 - 1011,9 10
26.04.2017 06:00:00 0,7 0,4 -1,5 2 1 4 2 ZW 1011,6 10
26.04.2017 05:00:00 2,3 1,5 0,8 5 3 11 6 ZW 1011,6 10
26.04.2017 04:00:00 4,0 2,0 2,8 9 5 18 10 WZW 1011,5 10
26.04.2017 03:00:00 4,1 1,3 2,6 8 4 29 16 NW 1011,5 10
26.04.2017 02:00:00 3,6 2,0 2,0 8 4 14 8 W 1011,3 10
26.04.2017 01:00:00 3,7 1,9 2,0 8 4 18 10 W 1011,4 10
26.04.2017 00:00:00 2,5 1,9 1,1 2 1 18 10 - 1011,5 10
25.04.2017 23:00:00 5,1 1,2 1,7 16 9 40 21 WNW 1011,9 10
25.04.2017 22:00:00 4,6 -0,5 1,9 11 6 22 12 W 1011,7 10
25.04.2017 21:00:00 6,1 -0,1 3,9 9 5 22 12 WNW 1011,5 10
25.04.2017 20:00:00 7,9 0,1 7,9 13 7 25 14 NW 1011,5 10
25.04.2017 19:00:00 8,1 -1,2 8,3 21 11 36 19 WNW 1011,6 10
25.04.2017 18:00:00 8,6 0,1 9,4 24 13 47 25 WNW 1011,7 10
25.04.2017 17:00:00 9,4 0,0 11,4 26 14 47 25 WNW 1011,6 10
25.04.2017 16:00:00 9,4 0,5 9,3 21 11 43 23 WNW 1011,6 10
25.04.2017 15:00:00 9,1 -1,6 11,2 22 12 40 21 NW 1011,6 10
25.04.2017 14:00:00 9,3 0,3 10,3 21 11 36 19 NW 1011,2 10
25.04.2017 13:00:00 7,6 1,2 8,0 24 13 47 25 NNW 1011,0 10
25.04.2017 12:00:00 7,3 2,4 6,2 15 8 43 23 NNW 1010,5 10
25.04.2017 11:00:00 6,1 2,5 6,2 16 9 47 25 WNW 1009,9 10
25.04.2017 10:00:00 7,3 2,2 6,5 26 14 43 23 W 1009,5 7
25.04.2017 09:00:00 6,1 1,1 5,7 29 16 43 23 W 1009,2 10
25.04.2017 08:00:00 6,3 1,6 6,8 22 12 36 19 W 1008,7 10
25.04.2017 07:00:00 5,5 -0,5 4,5 18 10 36 19 WNW 1008,3 10
25.04.2017 06:00:00 5,9 -0,2 5,2 22 12 36 19 WNW 1008,0 10
25.04.2017 05:00:00 5,6 1,3 4,6 15 8 43 23 WNW 1007,7 10
25.04.2017 04:00:00 6,5 2,5 5,6 16 9 32 18 NW 1007,7 10
25.04.2017 03:00:00 7,7 3,4 6,8 15 8 29 16 W 1007,6 10
25.04.2017 02:00:00 6,8 5,1 6,3 9 5 14 8 ZW 1008,0 10
25.04.2017 01:00:00 6,5 4,7 6,1 5 3 22 12 WZW 1008,5 10
25.04.2017 00:00:00 7,6 5,4 7,3 15 8 25 14 NW 1009,1 10
24.04.2017 23:00:00 8,3 7,0 8,1 15 8 43 23 NW 1009,2 10
24.04.2017 22:00:00 11,2 6,4 10,5 16 9 22 12 WZW 1009,1 10
24.04.2017 21:00:00 11,5 6,4 10,9 15 8 22 12 WZW 1009,7 10
24.04.2017 20:00:00 11,8 6,7 11,4 16 9 25 14 W 1010,4 10
24.04.2017 19:00:00 12,3 5,8 11,9 16 9 29 16 W 1010,9 10
24.04.2017 18:00:00 13,2 5,5 13,4 26 14 36 19 WZW 1011,6 10
24.04.2017 17:00:00 14,0 6,2 13,7 26 14 36 19 W 1012,2 10
24.04.2017 16:00:00 13,6 7,5 14,2 24 13 32 18 W 1013,0 10
24.04.2017 15:00:00 14,0 7,4 14,9 22 12 40 21 W 1013,9 10
24.04.2017 14:00:00 14,0 6,3 15,5 26 14 36 19 WZW 1014,7 10
24.04.2017 13:00:00 13,8 5,6 15,4 22 12 40 21 ZW 1015,6 10
24.04.2017 12:00:00 12,2 4,8 13,0 26 14 36 19 ZW 1016,4 10
24.04.2017 11:00:00 11,1 2,7 11,8 28 15 36 19 ZW 1016,8 10
24.04.2017 10:00:00 9,7 2,1 9,4 21 11 32 18 ZW 1017,3 10
24.04.2017 09:00:00 8,6 1,6 8,6 18 10 29 16 ZW 1017,9 10
24.04.2017 08:00:00 6,8 0,9 6,2 11 6 22 12 ZZW 1018,1 10
24.04.2017 07:00:00 6,7 0,4 6,0 13 7 25 14 ZW 1018,4 10
24.04.2017 06:00:00 6,9 0,4 5,7 11 6 22 12 ZZW 1018,8 10
24.04.2017 05:00:00 6,5 1,6 4,8 8 4 18 10 ZZW 1019,7 10
24.04.2017 04:00:00 6,7 2,3 5,4 9 5 18 10 Z 1020,5 10
24.04.2017 03:00:00 5,5 2,1 2,4 5 3 11 6 Z 1021,3 10
24.04.2017 02:00:00 4,5 2,5 1,0 5 3 11 6 Z 1022,0 10
24.04.2017 01:00:00 4,1 1,9 0,4 8 4 11 6 ZZO 1023,1 10
24.04.2017 00:00:00 1,5 0,6 -1,4 4 2 7 4 - 1023,8 10
23.04.2017 23:00:00 2,5 1,1 -0,9 2 1 4 2 NO 1024,4 10
23.04.2017 22:00:00 3,6 0,4 0,1 4 2 7 4 - 1024,8 10
23.04.2017 21:00:00 7,0 2,8 4,5 2 1 7 4 - 1024,9 10
23.04.2017 20:00:00 10,2 0,9 10,2 5 3 14 8 NNO 1025,1 10
23.04.2017 19:00:00 11,3 1,0 12,6 11 6 22 12 NNW 1025,4 10
23.04.2017 18:00:00 11,3 1,2 12,7 11 6 25 14 N 1025,6 10
23.04.2017 17:00:00 10,8 1,2 11,9 15 8 29 16 NNW 1026,1 10
23.04.2017 16:00:00 10,8 2,6 11,0 15 8 29 16 WNW 1026,4 10
23.04.2017 15:00:00 9,9 1,1 10,2 9 5 22 12 NNW 1026,9 10
23.04.2017 14:00:00 10,1 0,7 10,7 11 6 25 14 NNW 1027,2 10
23.04.2017 13:00:00 10,3 0,7 10,8 13 7 32 18 NNW 1027,5 10
23.04.2017 12:00:00 9,6 0,5 9,4 11 6 22 12 NNW 1027,8 10
23.04.2017 11:00:00 9,0 0,3 10,0 15 8 22 12 WNW 1027,8 10
23.04.2017 10:00:00 8,9 0,1 10,0 13 7 22 12 NNW 1027,8 10
23.04.2017 09:00:00 7,8 2,0 8,3 8 4 18 10 NNW 1027,7 10
23.04.2017 08:00:00 5,8 2,9 5,6 2 1 14 8 - 1027,4 10
23.04.2017 07:00:00 2,0 1,7 0,0 4 2 4 2 - 1027,2 10
23.04.2017 06:00:00 2,2 1,7 0,7 2 1 14 8 Z 1026,8 10
23.04.2017 05:00:00 3,6 2,4 1,5 2 1 14 8 - 1026,9 10
23.04.2017 04:00:00 4,7 -0,1 2,0 5 3 18 10 WNW 1026,8 10
23.04.2017 03:00:00 6,3 1,6 4,9 9 5 22 12 NW 1027,0 10
23.04.2017 02:00:00 6,0 2,1 4,0 9 5 22 12 W 1027,2 10
23.04.2017 01:00:00 5,0 1,1 2,4 5 3 14 8 WNW 1027,4 10
23.04.2017 00:00:00 3,6 0,2 -0,5 5 3 11 6 W 1027,5 10
22.04.2017 23:00:00 5,9 0,3 4,2 9 5 22 12 NNW 1027,6 10
22.04.2017 22:00:00 6,9 1,6 5,3 8 4 18 10 NW 1027,4 10
22.04.2017 21:00:00 7,2 1,3 6,1 8 4 29 16 NNW 1027,0 10
22.04.2017 20:00:00 8,4 1,1 8,2 16 9 32 18 NNW 1027,1 10
22.04.2017 19:00:00 9,6 1,8 9,9 21 11 36 19 NW 1027,1 10
22.04.2017 18:00:00 10,0 2,3 10,3 18 10 32 18 NNW 1027,1 10
22.04.2017 17:00:00 10,0 3,0 10,4 15 8 29 16 N 1027,1 10
22.04.2017 16:00:00 9,8 4,1 10,5 11 6 36 19 NNW 1027,4 42
22.04.2017 15:00:00 10,2 1,4 10,6 22 12 36 19 N 1027,7 10
22.04.2017 14:00:00 11,7 3,1 12,1 16 9 29 16 NNW 1027,5 10
22.04.2017 13:00:00 10,6 3,0 11,1 15 8 32 18 NNW 1028,1 10
22.04.2017 12:00:00 11,0 3,0 12,0 16 9 29 16 N 1028,1 10
22.04.2017 11:00:00 10,0 3,1 10,6 15 8 22 12 - 1028,0 10
22.04.2017 10:00:00 9,0 5,3 9,9 8 4 14 8 NNW 1027,9 10
22.04.2017 09:00:00 7,6 5,8 7,8 2 1 7 4 - 1027,8 10
22.04.2017 08:00:00 6,4 5,3 6,4 0 0 11 6 N 1027,4 10
22.04.2017 07:00:00 6,1 5,2 6,0 13 7 22 12 NO 1027,2 9
22.04.2017 06:00:00 6,8 4,6 6,7 16 9 32 18 NNO 1026,6 10
22.04.2017 05:00:00 7,7 5,3 7,6 21 11 36 19 NNO 1026,2 10
22.04.2017 04:00:00 10,1 7,8 9,3 8 4 18 10 NW 1025,8 10
22.04.2017 03:00:00 11,0 7,6 10,3 13 7 18 10 W 1026,2 10
22.04.2017 02:00:00 10,7 8,1 10,2 11 6 14 8 W 1026,6 10

tt = temperatuur
td = dauwpunt
tt 5cm = temperatuur 5cm
ff = windsnelheid
fx = windstoten
dd = windrichting
ppp = luchtdruk
vv = zicht

Weerstations in de omgeving